Powrót do katalogu

QIANFAN-78

AktywnyŁącznośćPO
NORAD 63164·PAYLOAD·🇨🇳 China

Wystrzelony Mar 11, 2025 z Wenchang Space Launch Site

Loading…

Następne Przeloty (najbliższe 24 godziny)

TLE

ŚwieżeSource: Space-Track

Epoka: Sep 14, 2026, 20:51 UTC

1 63164U 25046F   26257.86892650  .00000063  00000-0  78073-4 0  9991
2 63164  88.9651 291.3235 0016624  56.8736 303.4008 13.51011906 84713

Śledź QIANFAN-78 w czasie rzeczywistym z AllMySat

Download on the App Store